When you browse on this site, cookies collect data to enhance your experience and personalize the content and advertising you see.
Visit our Privacy Policy to learn more. By continuing to use the site, you agree to this use of cookies and data.
  • In Sweden
  • List of Countries
  • For 7 days
  • Water Temperature
  • Satellite Maps
  • Weather Map
  • Weather Widgets
  • user-avatar
    Login

    Hourly Weather Vratsa

    Today, 21 November, Wednesday

    Time Temperature Precipitation Wind Pressure Humidity
    00:00 +2°C° 0.2 mm 2 mps 707 mmHg 97%
    01:00 +2°C° 0.2 mm 2 mps 707 mmHg 98%
    02:00 +2°C° 0.2 mm 2 mps 706 mmHg 98%
    03:00 +2°C° 0.2 mm 2 mps 706 mmHg 98%
    04:00 +2°C° 0.2 mm 2 mps 706 mmHg 98%
    05:00 +2°C° 0.2 mm 2 mps 705 mmHg 98%
    06:00 +2°C° 1.3 mm 2 mps 705 mmHg 98%
    07:00 +2°C° 1.3 mm 2 mps 705 mmHg 98%
    08:00 +2°C° 1.3 mm 2 mps 705 mmHg 98%
    09:00 +2°C° 1.6 mm 2 mps 705 mmHg 97%
    10:00 +1°C° 1.6 mm 2 mps 705 mmHg 97%
    11:00 +1°C° 1.6 mm 2 mps 705 mmHg 97%
    12:00 +1°C° 0.7 mm 2 mps 705 mmHg 96%
    13:00 +1°C° 0.7 mm 2 mps 705 mmHg 96%
    14:00 +1°C° 0.7 mm 2 mps 706 mmHg 95%
    15:00 +1°C° 0.3 mm 2 mps 706 mmHg 96%
    16:00 +2°C° 0.3 mm 1 mps 706 mmHg 96%
    17:00 +2°C° 0.3 mm 1 mps 707 mmHg 96%
    18:00 +2°C° 0.2 mm 1 mps 707 mmHg 95%
    19:00 +2°C° 0.2 mm 1 mps 707 mmHg 95%
    20:00 +2°C° 0.2 mm 1 mps 708 mmHg 95%
    21:00 +2°C° 0.2 mm 1 mps 708 mmHg 95%
    22:00 +2°C° 0.2 mm 1 mps 708 mmHg 95%
    23:00 +2°C° 0.2 mm 1 mps 709 mmHg 95%

    Tomorrow, 22 November, Thursday

    Time Temperature Precipitation Wind Pressure Humidity
    00:00 +2°C° 0.1 mm 1 mps 709 mmHg 96%
    01:00 +2°C° 0.1 mm 1 mps 709 mmHg 96%
    02:00 +2°C° 0.1 mm 1 mps 709 mmHg 96%
    03:00 +1°C° 0.1 mm 1 mps 710 mmHg 96%
    04:00 +1°C° 0.1 mm 1 mps 710 mmHg 96%
    05:00 +1°C° 0.1 mm 1 mps 710 mmHg 96%
    06:00 +1°C° 0.2 mm 1 mps 710 mmHg 95%
    07:00 +1°C° 0.2 mm 1 mps 710 mmHg 95%
    08:00 +1°C° 0.2 mm 1 mps 711 mmHg 95%
    09:00 +2°C° 0.1 mm 1 mps 711 mmHg 93%
    10:00 +3°C° 0.1 mm 1 mps 711 mmHg 90%
    11:00 +2°C° 0.1 mm 2 mps 712 mmHg 88%
    12:00 +2°C° 0.1 mm 2 mps 712 mmHg 87%
    13:00 +3°C° 0.1 mm 2 mps 711 mmHg 86%
    14:00 +3°C° 0.1 mm 2 mps 711 mmHg 85%
    15:00 +3°C° 0.1 mm 2 mps 711 mmHg 87%
    16:00 +3°C° 0.1 mm 1 mps 712 mmHg 89%
    17:00 +3°C° 0.1 mm 1 mps 712 mmHg 91%
    18:00 +2°C° 0.1 mm 1 mps 712 mmHg 92%
    19:00 +2°C° 0.1 mm 1 mps 713 mmHg 93%
    20:00 +2°C° 0.1 mm 1 mps 713 mmHg 93%
    21:00 +2°C° 0 mm 1 mps 713 mmHg 94%
    22:00 +2°C° 0 mm 1 mps 713 mmHg 94%
    23:00 +1°C° 0 mm 1 mps 713 mmHg 94%

    Day after tomorrow, 23 November, Friday

    Time Temperature Precipitation Wind Pressure Humidity
    00:00 +1°C° 0 mm 1 mps 714 mmHg 94%
    01:00 +1°C° 0 mm 1 mps 714 mmHg 94%
    02:00 +1°C° 0 mm 1 mps 714 mmHg 94%
    03:00 +1°C° 0 mm 1 mps 714 mmHg 94%
    04:00 +1°C° 0 mm 1 mps 714 mmHg 94%
    05:00 +1°C° 0 mm 1 mps 714 mmHg 94%
    06:00 +1°C° 0 mm 1 mps 714 mmHg 94%
    07:00 +1°C° 0 mm 1 mps 715 mmHg 93%
    08:00 +1°C° 0 mm 1 mps 715 mmHg 93%
    09:00 +2°C° 0 mm 1 mps 715 mmHg 89%
    10:00 +3°C° 0 mm 1 mps 716 mmHg 85%
    11:00 +4°C° 0 mm 1 mps 716 mmHg 80%
    12:00 +5°C° 0 mm 1 mps 716 mmHg 78%
    13:00 +5°C° 0 mm 1 mps 716 mmHg 75%
    14:00 +5°C° 0 mm 2 mps 715 mmHg 73%
    15:00 +5°C° 0 mm 1 mps 715 mmHg 76%
    16:00 +4°C° 0 mm 1 mps 715 mmHg 79%
    17:00 +4°C° 0 mm 1 mps 715 mmHg 81%
    18:00 +3°C° 0 mm 1 mps 716 mmHg 82%
    19:00 +3°C° 0 mm 1 mps 716 mmHg 83%
    20:00 +2°C° 0 mm 1 mps 716 mmHg 83%
    21:00 +2°C° 0 mm 1 mps 716 mmHg 84%
    22:00 +2°C° 0 mm 1 mps 716 mmHg 84%
    23:00 +1°C° 0 mm 1 mps 716 mmHg 85%

    24 November, Saturday

    Time Temperature Precipitation Wind Pressure Humidity
    00:00 +1°C° 0 mm 1 mps 716 mmHg 85%
    01:00 +1°C° 0 mm 1 mps 716 mmHg 86%
    02:00 +1°C° 0 mm 1 mps 715 mmHg 86%
    03:00 +1°C° 0 mm 1 mps 715 mmHg 86%
    04:00 +1°C° 0 mm 1 mps 715 mmHg 86%
    05:00 0°C° 0 mm 1 mps 714 mmHg 86%
    06:00 0°C° 0 mm 1 mps 714 mmHg 86%
    07:00 0°C° 0 mm 1 mps 714 mmHg 85%
    08:00 0°C° 0 mm 1 mps 714 mmHg 85%
    09:00 +2°C° 0 mm 1 mps 714 mmHg 79%
    10:00 +4°C° 0 mm 1 mps 714 mmHg 74%
    11:00 +5°C° 0 mm 1 mps 714 mmHg 68%
    12:00 +6°C° 0 mm 1 mps 713 mmHg 66%
    13:00 +7°C° 0 mm 1 mps 713 mmHg 64%
    14:00 +8°C° 0 mm 1 mps 713 mmHg 62%
    15:00 +6°C° 0 mm 1 mps 712 mmHg 66%
    16:00 +5°C° 0 mm 1 mps 712 mmHg 70%
    17:00 +4°C° 0 mm 1 mps 712 mmHg 73%
    18:00 +4°C° 0 mm 1 mps 711 mmHg 74%
    19:00 +4°C° 0 mm 1 mps 711 mmHg 74%
    20:00 +4°C° 0 mm 1 mps 711 mmHg 75%
    21:00 +3°C° 0 mm 1 mps 711 mmHg 76%
    22:00 +3°C° 0 mm 1 mps 711 mmHg 76%
    23:00 +3°C° 0 mm 1 mps 711 mmHg 77%

    25 November, Sunday

    Time Temperature Precipitation Wind Pressure Humidity
    00:00 +3°C° 0 mm 1 mps 711 mmHg 78%
    01:00 +3°C° 0 mm 1 mps 710 mmHg 78%
    02:00 +3°C° 0 mm 1 mps 710 mmHg 78%
    03:00 +3°C° 0 mm 1 mps 710 mmHg 79%
    04:00 +2°C° 0 mm 1 mps 710 mmHg 79%
    05:00 +2°C° 0 mm 1 mps 709 mmHg 80%
    06:00 +2°C° 0 mm 1 mps 709 mmHg 80%
    07:00 +3°C° 0 mm 1 mps 709 mmHg 80%
    08:00 +3°C° 0 mm 1 mps 709 mmHg 80%
    09:00 +4°C° 0 mm 1 mps 709 mmHg 75%
    10:00 +6°C° 0 mm 1 mps 709 mmHg 71%
    11:00 +8°C° 0 mm 1 mps 709 mmHg 66%
    12:00 +9°C° 0 mm 1 mps 708 mmHg 64%
    13:00 +10°C° 0 mm 1 mps 708 mmHg 63%
    14:00 +11°C° 0 mm 1 mps 708 mmHg 61%
    15:00 +10°C° 0 mm 1 mps 707 mmHg 65%
    16:00 +9°C° 0 mm 1 mps 707 mmHg 69%
    17:00 +7°C° 0 mm 1 mps 707 mmHg 73%
    18:00 +7°C° 0 mm 1 mps 707 mmHg 75%
    19:00 +7°C° 0 mm 1 mps 706 mmHg 76%
    20:00 +6°C° 0 mm 1 mps 706 mmHg 77%
    21:00 +6°C° 0 mm 1 mps 706 mmHg 78%
    22:00 +6°C° 0 mm 1 mps 706 mmHg 79%
    23:00 +6°C° 0 mm 1 mps 706 mmHg 79%

    26 November, Monday

    Time Temperature Precipitation Wind Pressure Humidity
    00:00 +6°C° 0.1 mm 1 mps 706 mmHg 80%
    01:00 +6°C° 0.1 mm 1 mps 706 mmHg 81%
    02:00 +6°C° 0.1 mm 1 mps 705 mmHg 82%
    03:00 +6°C° 0.4 mm 1 mps 705 mmHg 83%
    04:00 +7°C° 0.4 mm 1 mps 705 mmHg 85%
    05:00 +7°C° 0.4 mm 1 mps 705 mmHg 87%
    06:00 +7°C° 0.3 mm 1 mps 705 mmHg 88%
    07:00 +7°C° 0.3 mm 1 mps 704 mmHg 88%
    08:00 +7°C° 0.3 mm 1 mps 704 mmHg 89%
    09:00 +8°C° 0 mm 1 mps 705 mmHg 84%
    10:00 +9°C° 0 mm 1 mps 705 mmHg 80%
    11:00 +10°C° 0 mm 1 mps 705 mmHg 75%
    12:00 +11°C° 0 mm 1 mps 704 mmHg 72%
    13:00 +11°C° 0 mm 1 mps 704 mmHg 70%
    14:00 +12°C° 0 mm 1 mps 704 mmHg 68%
    15:00 +11°C° 0 mm 1 mps 704 mmHg 72%
    16:00 +10°C° 0 mm 1 mps 704 mmHg 77%
    17:00 +9°C° 0 mm 1 mps 703 mmHg 82%
    18:00 +8°C° 0 mm 1 mps 704 mmHg 83%
    19:00 +8°C° 0 mm 1 mps 704 mmHg 84%
    20:00 +8°C° 0 mm 1 mps 704 mmHg 86%
    21:00 +8°C° 0 mm 1 mps 704 mmHg 85%
    22:00 +7°C° 0 mm 1 mps 704 mmHg 85%
    23:00 +7°C° 0 mm 1 mps 704 mmHg 85%
    Show more